Location: Unspecified
(0.0000°N, 0.0000°E)
Time: 10:12:46
(UTC+00:00)

ARIANE 1 DEB - Pass Details

Date: 17 February 2026
Orbit: 1090 x 21662 km, 16.1° (Epoch: 9 December)

Event Time Altitude Azimuth Distance (km) Brightness Sun altitude
Rises 19:04:31 0° 281° (W) 7,303 ? -12.4°
Reaches altitude 10° 19:07:38 10° 280° (W) 7,041 ? -13.1°
Maximum altitude 19:49:46 78° 197° (SSW) 11,909 ? -23.4°
Drops below altitude 10° 00:35:14 10° 99° (E) 11,652 ? -77.2°
Sets 00:42:03 0° 96° (E) 11,198 ? -76.4°
